This is the latest recevied weather packets stored in our database for station/object W0WC. If no packets are shown the sender has not sent any weather packets the latest 1 day(s).
| Time | Temp. | Humidity | Pressure | Rain* | Wind** | Luminosity | Snow |
|---|---|---|---|---|---|---|---|
| 1778001275 | 11.67° C | 80% | 1008.7 hPa | 0 mm | 1.34 m/s, 29° | 111 W/m² | - |
| 1778000972 | 11.67° C | 80% | 1008.9 hPa | 0 mm | 3.58 m/s, 32° | 123 W/m² | - |
| 1778000668 | 11.67° C | 80% | 1008.9 hPa | 0 mm | 1.79 m/s, 16° | 129 W/m² | - |
| 1778000364 | 11.67° C | 80% | 1009 hPa | 0 mm | 3.13 m/s, 25° | 143 W/m² | - |
| 1778000060 | 11.67° C | 80% | 1008.8 hPa | 0 mm | 3.13 m/s, 19° | 109 W/m² | - |
| 1777999755 | 11.67° C | 80% | 1009 hPa | 0 mm | 1.34 m/s, 354° | 86 W/m² | - |
| 1777999452 | 11.67° C | 80% | 1009 hPa | 0 mm | 3.58 m/s, 350° | 113 W/m² | - |
| 1777999150 | 11.67° C | 80% | 1009.3 hPa | 0 mm | 1.79 m/s, 42° | 108 W/m² | - |
| 1777998849 | 11.67° C | 80% | 1009.3 hPa | 0 mm | 2.24 m/s, 34° | 115 W/m² | - |
| 1777998548 | 12.22° C | 81% | 1009.1 hPa | 0 mm | 2.68 m/s, 1° | 131 W/m² | - |
| 1777998243 | 12.22° C | 80% | 1008.9 hPa | 0 mm | 4.02 m/s, 28° | 141 W/m² | - |
| 1777997940 | 12.22° C | 81% | 1009 hPa | 0 mm | 2.24 m/s, 302° | 165 W/m² | - |
| 1777997637 | 12.22° C | 80% | 1009 hPa | 0 mm | 2.68 m/s, 16° | 164 W/m² | - |
| 1777997334 | 12.22° C | 80% | 1008.8 hPa | 0 mm | 2.24 m/s, 341° | 182 W/m² | - |
| 1777997033 | 12.22° C | 81% | 1008.8 hPa | 0 mm | 2.24 m/s, 25° | 237 W/m² | - |
| 1777996729 | 12.22° C | 82% | 1008.8 hPa | 0 mm | 2.24 m/s, 27° | 209 W/m² | - |
| 1777996424 | 12.22° C | 82% | 1008.7 hPa | 0 mm | 2.68 m/s, 5° | 203 W/m² | - |
| 1777996122 | 12.22° C | 83% | 1008.5 hPa | 0 mm | 2.24 m/s, 37° | 197 W/m² | - |
| 1777995817 | 11.67° C | 84% | 1008.6 hPa | 0 mm | 2.68 m/s, 1° | 144 W/m² | - |
| 1777995514 | 11.67° C | 85% | 1008.6 hPa | 0 mm | 3.58 m/s, 296° | 136 W/m² | - |
| 1777995211 | 11.67° C | 85% | 1008.7 hPa | 0 mm | 3.58 m/s, 28° | 137 W/m² | - |
| 1777994908 | 11.67° C | 86% | 1009 hPa | 0 mm | 2.68 m/s, 359° | 114 W/m² | - |
| 1777994605 | 11.67° C | 87% | 1008.7 hPa | 0 mm | 2.68 m/s, 33° | 111 W/m² | - |
| 1777994300 | 11.67° C | 87% | 1009 hPa | 0 mm | 2.68 m/s, 6° | 88 W/m² | - |
| 1777993997 | 11.67° C | 88% | 1009.2 hPa | 0 mm | 3.13 m/s, 42° | 71 W/m² | - |
* Rain latest hour (hover to see other rain measurements)
** Current wind speed in m/s (hover to see current wind gust speed)